Location: *
(51.4660°N, 0.3360°W)
Time: 12:10:03
(UTC+00:00)

Cosmos 2074 Rocket - Pass Details

Date: 19 September 2019
Orbit: 966 x 987 km, 82.9° (Epoch: 17 October)

Event Time Altitude Azimuth Distance (km) Brightness Sun altitude
Rises 18:44:28 0° 349° (NNW) 3,691 7.3 -6.6°
Reaches altitude 10° 18:47:00 10° 348° (NNW) 2,737 6.7 -7.0°
Maximum altitude 18:53:16 78° 263° (W) 998 4.2 -7.9°
Drops below altitude 10° 18:59:27 10° 178° (S) 2,705 6.2 -8.8°
Sets 19:01:56 0° 177° (S) 3,646 6.8 -9.2°
